Regional Weather Roundup
Issued by NWS

Home | Current Version | Previous Version | Graphics & Text | Print | Product List | Glossary On
Versions: 1 2 3 4 5 6 7 8 9 10 11 12 13 14 15 16 17 18 19 20 21 22 23 24 25 26 27 28 29 30 31 32 33 34 35 36 37 38 39 40 41 42 43 44 45 46 47 48 49 50
000
ASUS43 KFSD 240302
RWRSD

WEATHER ROUNDUP FOR SOUTH DAKOTA
NATIONAL WEATHER SERVICE SIOUX FALLS SD
1000 PM CDT THU MAR 23 2017

NOTE: "FAIR" INDICATES FEW OR NO CLOUDS BELOW 12,000 FEET WITH NO
SIGNIFICANT WEATHER AND/OR OBSTRUCTIONS TO VISIBILITY.


SDZ001>005-009-010-012>017-240400-
NORTHWEST AND NORTH CENTRAL SOUTH DAKOTA

CITY           SKY/WX    TMP DP  RH WIND       PRES   REMARKS
BUFFALO          N/A     41  40  96 W9        29.87R
FAITH            N/A     46  39  76 N17       29.88R
MOBRIDGE       CLOUDY    42  36  79 N12       29.83R
$$

SDZ012>016-024>037-041>051-057-063-072>074-240400-
SOUTHWEST AND SOUTH CENTRAL SOUTH DAKOTA

CITY           SKY/WX    TMP DP  RH WIND       PRES   REMARKS
RAPID CTY ARPT CLOUDY    43  39  86 N23G30    29.89R
PIERRE         CLOUDY    45  37  73 N18       29.71F
CUSTER         CLOUDY    37  31  78 N13G18    29.87R
ELLSWORTH AFB  CLOUDY    42  42 100 NW21      29.90
PHILIP         CLOUDY    45  39  79 N24G32    29.78F
PINE RIDGE     CLOUDY    45  43  93 N17G28    29.80R
SPEARFISH      MOCLDY    39  39 100 CALM      29.96R FOG
WINNER         MOCLDY    50  48  93 NE10      29.72R FOG
$$

SDZ004>011-016>023-039-040-240400-
NORTHEAST SOUTH DAKOTA

CITY           SKY/WX    TMP DP  RH WIND       PRES   REMARKS
ABERDEEN       CLOUDY    37  34  89 N9        29.80R
WATERTOWN      CLOUDY    36  35  96 NE6       29.76S
BROOKINGS      CLOUDY    41  40  96 CALM      29.74R FOG
SISSETON         N/A     35  35 100 E3        29.82R
$$

SDZ017-020-022-023-036>040-048>070-240400-
SOUTHEAST SOUTH DAKOTA

CITY           SKY/WX    TMP DP  RH WIND       PRES   REMARKS
SIOUX FALLS    CLOUDY    46  41  82 N6        29.73R
HURON          CLOUDY    41  41 100 N9        29.75R FOG
CHAMBERLAIN    FOG       46  46 100 N6        29.75R VSB 1/2
MITCHELL       CLOUDY    46  46 100 N9        29.74R FOG
YANKTON        CLOUDY    54  46  76 N9        29.69R
$$

ABBREVIATIONS USED IN REMARKS
   TC - TEMPERATURE IN CELSIUS
  WCI - WIND CHILL INDEX
   HX - HEAT INDEX
  VSB - VISIBILITY




USA.gov is the U.S. government's official web portal to all federal, state and local government web resources and services.